This demonstration page uses our WeatherBlox Daily Observations layout. Learn more.

Hourly Observations for February 19, 2018

Temp ( °F °C ) Dew Point ( °F °C ) Humidity (%) Winds ( mph kmh ) Pressure ( in mb ) Visibility ( mi km ) Precip ( " mm )
12:15 am 00:15 Cloudy 26 -3.3 25 -4 95 95 N 28 44 29.74 1007 10 16.0934 0 0
12:35 am 00:35 Cloudy 26 -3.5 25 -4.1 96 96 N 24 39 29.77 1008 10 16.0934 0 0
12:55 am 00:55 Cloudy 26 -3.6 24 -4.4 94 94 NNE 25 41 29.8 1009 10 16.0934 0 0
1:15 am 01:15 Cloudy 24 -4.4 23 -5.2 94 94 N 24 39 29.83 1010 7 11.26538 0 0
1:35 am 01:35 Cloudy 24 -4.5 23 -5.2 95 95 N 20 31 29.83 1010 7 11.26538 0 0
1:55 am 01:55 Cloudy 23 -4.8 22 -5.3 96 96 N 24 39 29.83 1010 7 11.26538 0 0
2:15 am 02:15 Cloudy with Mist and Fog 22 -5.3 21 -6 95 95 N 25 41 29.83 1010 5 8.0467 0 0
2:35 am 02:35 Cloudy with Mist and Fog 22 -5.5 21 -6 96 96 N 21 33 29.85 1011 4 6.43736 0 0
2:55 am 02:55 Cloudy with Mist and Fog 21 -6 20 -6.5 96 96 N 25 41 29.88 1012 3 4.82802 0 0
3:15 am 03:15 Cloudy with Mist and Fog 21 -6.1 20 -6.6 96 96 N 20 31 29.91 1013 3 4.82802 0 0
3:35 am 03:35 Cloudy with Mist and Fog 20 -6.6 19 -7 97 97 N 22 35 29.91 1013 4 6.43736 0 0
3:55 am 03:55 Cloudy with Mist and Fog 19 -7.1 18 -7.6 96 96 N 18 30 29.91 1013 4 6.43736 0 0
4:15 am 04:15 Cloudy 19 -7.3 18 -8 95 95 N 17 28 29.91 1013 7 11.26538 0 0
4:35 am 04:35 Cloudy 18 -7.6 17 -8.4 94 94 N 22 35 29.91 1013 10 16.0934 0 0
4:55 am 04:55 Cloudy 18 -7.9 16 -8.7 94 94 N 23 37 29.91 1013 10 16.0934 0 0
5:15 am 05:15 Cloudy 18 -8 16 -9 93 93 N 18 30 29.94 1014 10 16.0934 0 0
5:35 am 05:35 Cloudy with Light Snow 17 -8.3 15 -9.3 93 93 N 17 28 29.94 1014 10 16.0934 0 0
5:55 am 05:55 Cloudy 17 -8.5 15 -9.6 92 92 N 23 37 29.97 1015 10 16.0934 0 0
6:15 am 06:15 Cloudy 17 -8.5 15 -9.5 93 93 N 17 28 29.97 1015 10 16.0934 0 0
6:35 am 06:35 Cloudy 16 -9 14 -10.2 91 91 N 21 33 29.97 1015 10 16.0934 0 0
6:55 am 06:55 Windy with Snow Likely 16 -9 13 -10.3 90 90 N 20 31 29.97 1015 10 16.0934 0 0
7:15 am 07:15 Cloudy with Light Snow 16 -9 14 -10.2 91 91 N 16 26 29.97 1015 10 16.0934 0 0
7:35 am 07:35 Cloudy with Light Snow 16 -8.9 14 -10.1 91 91 N 15 24 30 1016 10 16.0934 0 0
7:55 am 07:55 Windy with Snow Likely 15 -9.2 13 -10.5 90 90 N 20 31 30 1016 10 16.0934 0 0
8:15 am 08:15 Windy with Snow Likely 16 -9.1 13 -10.5 90 90 N 21 33 30 1016 10 16.0934 0 0
8:35 am 08:35 Cloudy with Light Snow 16 -9.1 13 -10.3 91 91 N 16 26 30 1016 7 11.26538 0 0
8:55 am 08:55 Cloudy with Light Snow 15 -9.2 13 -10.6 90 90 N 16 26 30 1016 10 16.0934 0 0
9:15 am 09:15 Cloudy with Light Snow 16 -9 13 -10.3 90 90 N 14 22 30.03 1017 5 8.0467 0 0
9:35 am 09:35 Cloudy with Light Snow 16 -9 13 -10.3 90 90 N 15 24 30 1016 7 11.26538 0 0
9:55 am 09:55 Cloudy with Light Snow 16 -9 14 -10.2 91 91 N 13 20 30.03 1017 7 11.26538 0 0
10:15 am 10:15 Cloudy with Light Snow 16 -9 14 -10.2 91 91 N 18 30 30 1016 5 8.0467 0 0
10:35 am 10:35 Cloudy with Light Snow 16 -8.8 14 -10.1 90 90 N 16 26 30 1016 7 11.26538 0 0
10:55 am 10:55 Cloudy with Light Snow 16 -9 13 -10.3 90 90 N 17 28 30.03 1017 7 11.26538 0 0
11:15 am 11:15 Cloudy with Light Snow 16 -8.8 13 -10.4 88 88 N 14 22 30.03 1017 5 8.0467 0 0
11:35 am 11:35 Cloudy with Light Snow 16 -8.7 14 -10.1 90 90 N 13 20 30 1016 5 8.0467 0 0
11:55 am 11:55 Cloudy with Light Snow 17 -8.6 14 -10 90 90 N 15 24 30 1016 4 6.43736 0 0
12:15 pm 12:15 Cloudy with Light Snow 17 -8.6 14 -10 90 90 N 16 26 30 1016 7 11.26538 0 0
12:35 pm 12:35 Cloudy with Light Snow 17 -8.5 14 -10 89 89 N 13 20 30 1016 4 6.43736 0 0
12:55 pm 12:55 Cloudy with Light Snow 17 -8.6 14 -10.1 89 89 N 13 20 30 1016 5 8.0467 0 0
1:15 pm 13:15 Cloudy with Light Snow 17 -8.5 14 -10 89 89 N 12 19 30 1016 5 8.0467 0 0
1:35 pm 13:35 Cloudy with Light Snow 17 -8.5 14 -10 89 89 N 13 20 30 1016 5 8.0467 0 0
1:55 pm 13:55 Cloudy with Light Snow 17 -8.2 15 -9.7 89 89 N 10 17 29.94 1014 4 6.43736 0 0
2:15 pm 14:15 Cloudy with Light Snow 17 -8.3 14 -10.1 87 87 N 13 20 29.94 1014 5 8.0467 0 0
2:35 pm 14:35 Cloudy with Light Snow 17 -8.3 14 -9.9 88 88 N 15 24 30 1016 5 8.0467 0 0
2:55 pm 14:55 Cloudy with Light Snow 17 -8.3 14 -10 88 88 N 13 20 30 1016 4 6.43736 0 0
3:15 pm 15:15 Cloudy with Light Snow 17 -8.5 14 -10.2 88 88 N 14 22 29.97 1015 7 11.26538 0 0
3:35 pm 15:35 Cloudy with Light Snow 17 -8.5 13 -10.3 87 87 N 15 24 29.97 1015 5 8.0467 0 0
3:55 pm 15:55 Cloudy with Light Snow 17 -8.6 13 -10.4 87 87 N 14 22 29.97 1015 10 16.0934 0 0
4:15 pm 16:15 Cloudy with Light Snow 16 -8.7 13 -10.5 87 87 N 14 22 29.97 1015 7 11.26538 0 0
4:35 pm 16:35 Cloudy with Light Snow 16 -8.8 13 -10.5 88 88 NNE 15 24 29.97 1015 7 11.26538 0 0
4:55 pm 16:55 Cloudy with Light Snow 16 -9 13 -10.7 88 88 N 15 24 29.97 1015 7 11.26538 0 0
5:15 pm 17:15 Cloudy with Light Snow 16 -9.1 12 -11 86 86 N 13 20 30 1016 7 11.26538 0 0
5:35 pm 17:35 Cloudy with Light Snow 15 -9.2 12 -11 87 87 NNE 12 19 30 1016 10 16.0934 0 0
5:55 pm 17:55 Cloudy with Light Snow 15 -9.4 12 -11 88 88 NNE 13 20 29.97 1015 10 16.0934 0 0
6:15 pm 18:15 Cloudy with Light Snow 15 -9.6 12 -11.2 88 88 NNE 15 24 30 1016 10 16.0934 0 0
6:35 pm 18:35 Cloudy with Light Snow 15 -9.6 12 -11.2 88 88 NNE 15 24 30 1016 10 16.0934 0 0
6:55 pm 18:55 Cloudy with Light Snow 14 -9.8 12 -11.2 90 90 NNE 12 19 30 1016 10 16.0934 0 0
7:15 pm 19:15 Cloudy with Light Snow 14 -9.8 12 -11.3 89 89 N 12 19 30.03 1017 5 8.0467 0 0
7:35 pm 19:35 Cloudy 14 -10 12 -11.3 90 90 NNE 10 17 30 1016 10 16.0934 0 0
7:55 pm 19:55 Cloudy with Light Snow 14 -10 12 -11.2 91 91 NNE 12 19 30 1016 10 16.0934 0 0
8:15 pm 20:15 Cloudy with Light Snow 14 -10 12 -11.1 92 92 NNE 12 19 30 1016 10 16.0934 0 0
8:35 pm 20:35 Cloudy with Light Snow 14 -10 12 -11.2 91 91 NNE 13 20 30 1016 7 11.26538 0 0
8:55 pm 20:55 Cloudy with Light Snow 14 -10.1 12 -11.3 91 91 N 14 22 30 1016 4 6.43736 0 0
9:15 pm 21:15 Cloudy with Light Snow 14 -10.2 11 -11.5 90 90 N 14 22 30 1016 7 11.26538 0 0
9:35 pm 21:35 Cloudy with Light Snow 13 -10.5 11 -11.5 92 92 N 16 26 30 1016 7 11.26538 0 0
9:55 pm 21:55 Cloudy with Light Snow 13 -10.5 11 -11.6 92 92 N 15 24 30.03 1017 7 11.26538 0 0
10:15 pm 22:15 Cloudy with Light Snow 13 -10.5 11 -11.7 91 91 N 13 20 30.03 1017 10 16.0934 0 0
10:35 pm 22:35 Cloudy with Light Snow 13 -10.6 11 -11.9 90 90 N 14 22 30 1016 7 11.26538 0 0
10:55 pm 22:55 Cloudy with Light Snow 13 -10.8 10 -12 91 91 N 16 26 30 1016 10 16.0934 0 0
11:15 pm 23:15 Cloudy with Light Snow 13 -10.8 10 -12 91 91 N 13 20 30.06 1018 5 8.0467 0 0
11:35 pm 23:35 Cloudy with Light Snow 13 -10.8 10 -12.1 90 90 N 10 17 30.06 1018 7 11.26538 0 0
11:55 pm 23:55 Cloudy with Light Snow 12 -11 10 -12.5 89 89 N 13 20 30.09 1019 10 16.0934 0 0

Powered by AerisWeather